Weather History for Ellsworth AFB, SD

Change the Weather History Date:

Thursday, May 30, 2013

  Actual Average Record
Temperature  
Mean Temperature 57 °F -  
Max Temperature 62 °F 68 °F 86 °F (2002)
Min Temperature 52 °F 46 °F 39 °F (1997)
Degree Days  
Heating Degree Days 8    
Growing Degree Days 7 (Base 50)    
Moisture  
Dew Point 52 °F    
Average Humidity 81    
Maximum Humidity 100    
Minimum Humidity 59    
Precipitation  
Precipitation 0.19 in - - ()
Sea Level Pressure  
Sea Level Pressure 29.40 in    
Wind  
Wind Speed 10 mph (NW)    
Max Wind Speed 29 mph    
Max Gust Speed 43 mph    
Visibility 9 miles    
Events Rain    
Averages and records for this station are not official NWS values.
T = Trace of Precipitation, MM = Missing Value Source: NWS Daily Summary

Daily Weather History Graph

Daily Weather History Graph

Search for Another Location

Airport:

Trip Planner

Search our weather history database for the weather conditions in past years. The results will help you decide how hot, cold, wet, or windy it might be!

Date:

Astronomy

May. 30, 2013 Rise Set
Actual Time 5:13 AM MDT 8:27 PM MDT
Civil Twilight 4:37 AM MDT 9:02 PM MDT
Nautical Twilight 3:52 AM MDT 9:48 PM MDT
Astronomical Twilight 2:56 AM MDT 10:45 PM MDT
Moon 12:21 AM MDT (5/30) 11:32 AM MDT (5/30)
Length of Visible Light 16h 25m
Length of Day
15h 14m
Waning Gibbous, 61% of the Moon is Illuminated
May 30
Waning Gibbous
May 31
Last Quarter
Jun 8
New
Jun 16
First Quarter
Jun 23
Full

Hourly Weather History & Observations

Time (MDT) Temp. Dew Point Humidity Pressure Visibility Wind Dir Wind Speed Gust Speed Precip Events Conditions
12:40 AM 53.6 °F 53.6 °F 100% 29.49 in 10.0 mi NNW 10.4 mph - N/A   Overcast
12:58 AM 53.8 °F 52.7 °F 96% 29.42 in 10.0 mi NW 13.8 mph - 0.02 in   Overcast
1:58 AM 52.9 °F 51.4 °F 95% 29.40 in 10.0 mi NNW 5.8 mph - N/A   Scattered Clouds
2:58 AM 53.6 °F 51.6 °F 93% 29.38 in 10.0 mi NNE 13.8 mph - N/A   Mostly Cloudy
3:58 AM 53.8 °F 52.5 °F 95% 29.39 in 10.0 mi North 10.4 mph - N/A   Overcast
4:11 AM 53.6 °F 51.8 °F 94% 29.44 in 10.0 mi North 9.2 mph - N/A   Light Drizzle
4:24 AM 53.6 °F 51.8 °F 94% 29.44 in 10.0 mi NNW 10.4 mph - N/A   Overcast
4:38 AM 53.6 °F 51.8 °F 94% 29.44 in 10.0 mi NNW 9.2 mph - N/A Rain Light Rain
4:58 AM 54.0 °F 51.3 °F 91% 29.41 in 10.0 mi NNW 10.4 mph - 0.00 in Rain Light Rain
5:54 AM 53.6 °F 51.8 °F 94% 29.45 in 10.0 mi SW 3.5 mph - N/A   Overcast
5:58 AM 53.4 °F 52.5 °F 97% 29.41 in 10.0 mi WSW 3.5 mph - 0.01 in   Overcast
6:58 AM 54.1 °F 52.7 °F 95% 29.40 in 10.0 mi WNW 2.3 mph - N/A   Overcast
7:58 AM 55.9 °F 53.4 °F 91% 29.42 in 10.0 mi South 3.5 mph - N/A   Overcast
8:35 AM 57.2 °F 55.4 °F 94% 29.42 in 10.0 mi South 4.6 mph - N/A   Overcast
8:45 AM 57.2 °F 55.4 °F 94% 29.42 in 10.0 mi SSW 8.1 mph - N/A   Overcast
8:50 AM 59.0 °F 55.4 °F 88% 29.41 in 10.0 mi South 9.2 mph - N/A   Overcast
8:58 AM 59.0 °F 55.4 °F 88% 29.39 in 10.0 mi South 8.1 mph - N/A   Overcast
9:08 AM 59.0 °F 53.6 °F 82% 29.41 in 10.0 mi South 9.2 mph - N/A   Overcast
9:23 AM 60.8 °F 55.4 °F 82% 29.40 in 10.0 mi South 9.2 mph - N/A   Overcast
9:28 AM 60.8 °F 55.4 °F 82% 29.40 in 10.0 mi South 5.8 mph - N/A   Overcast
9:33 AM 60.8 °F 55.4 °F 82% 29.40 in 10.0 mi South 6.9 mph - N/A   Overcast
9:43 AM 60.8 °F 53.6 °F 77% 29.40 in 10.0 mi South 6.9 mph - N/A   Overcast
9:58 AM 61.2 °F 54.1 °F 78% 29.36 in 10.0 mi South 3.5 mph - N/A   Overcast
10:03 AM 60.8 °F 53.6 °F 77% 29.39 in 10.0 mi Variable 1.2 mph - N/A   Overcast
10:13 AM 62.6 °F 53.6 °F 72% 29.39 in 10.0 mi Variable 2.3 mph - N/A   Mostly Cloudy
10:40 AM 62.6 °F 53.6 °F 72% 29.39 in 3.0 mi NE 6.9 mph - N/A   Haze
10:45 AM 60.8 °F 53.6 °F 77% 29.38 in 2.0 mi NE 3.5 mph - N/A   Haze
10:50 AM 60.8 °F 53.6 °F 77% 29.39 in 1.2 mi East 5.8 mph - N/A   Haze
10:52 AM 60.8 °F 53.6 °F 77% 29.39 in 0.8 mi East 6.9 mph - N/A   Light Drizzle
10:57 AM 60.8 °F 55.4 °F 82% 29.39 in 0.8 mi East 6.9 mph - N/A Rain Heavy Rain
10:58 AM 60.8 °F 55.4 °F 82% 29.36 in 0.8 mi East 6.9 mph - 0.01 in Rain Heavy Rain
11:03 AM 59.0 °F 55.4 °F 88% 29.39 in 2.0 mi East 5.8 mph - N/A Rain Rain
11:08 AM 57.2 °F 53.6 °F 88% 29.39 in 10.0 mi ENE 5.8 mph - N/A Rain Heavy Rain
11:13 AM 57.2 °F 53.6 °F 88% 29.39 in 10.0 mi East 5.8 mph - N/A Rain Light Rain
11:41 AM 59.0 °F 53.6 °F 82% 29.38 in 10.0 mi East 4.6 mph - N/A   Overcast
11:47 AM 59.0 °F 53.6 °F 82% 29.38 in 10.0 mi East 4.6 mph - N/A   Light Drizzle
11:58 AM 59.0 °F 55.4 °F 88% 29.36 in 10.0 mi East 6.9 mph - 0.08 in   Overcast
12:58 PM 60.8 °F 54.3 °F 79% 29.35 in 10.0 mi ENE 8.1 mph - 0.00 in   Overcast
1:58 PM 61.3 °F 52.5 °F 73% 29.34 in 10.0 mi SE 2.3 mph - N/A   Overcast
2:58 PM 62.1 °F 52.7 °F 71% 29.33 in 10.0 mi North 4.6 mph - N/A   Overcast
3:05 PM 62.6 °F 48.2 °F 59% 29.36 in 10.0 mi WNW 21.9 mph - N/A   Light Drizzle
3:10 PM 62.6 °F 48.2 °F 59% 29.36 in 10.0 mi WNW 20.7 mph 28.8 mph N/A   Overcast
3:33 PM 60.8 °F 50.0 °F 68% 29.37 in 10.0 mi NW 18.4 mph 24.2 mph N/A   Light Drizzle
3:45 PM 59.0 °F 51.8 °F 77% 29.38 in 10.0 mi NW 15.0 mph - N/A   Light Drizzle
3:55 PM 57.2 °F 51.8 °F 82% 29.38 in 7.0 mi West 16.1 mph - N/A Rain Light Rain
3:58 PM 57.0 °F 51.8 °F 83% 29.37 in 6.0 mi West 13.8 mph - 0.01 in Rain Rain
4:03 PM 55.4 °F 50.0 °F 82% 29.38 in 2.5 mi WNW 13.8 mph - N/A Rain Light Rain
4:08 PM 55.4 °F 50.0 °F 82% 29.38 in 3.0 mi NW 17.3 mph 24.2 mph N/A Rain Light Rain
4:13 PM 57.2 °F 50.0 °F 77% 29.38 in 10.0 mi WNW 12.7 mph 24.2 mph N/A   Light Drizzle
4:23 PM 55.4 °F 50.0 °F 82% 29.39 in 10.0 mi WNW 9.2 mph - N/A Rain Light Rain
4:33 PM 55.4 °F 51.8 °F 88% 29.39 in 9.0 mi WNW 8.1 mph - N/A Rain Light Rain
4:43 PM 57.2 °F 50.0 °F 77% 29.38 in 10.0 mi NW 19.6 mph 25.3 mph N/A Rain Light Rain
4:48 PM 57.2 °F 50.0 °F 77% 29.38 in 10.0 mi NW 17.3 mph 25.3 mph N/A Rain Light Rain
4:53 PM 57.2 °F 50.0 °F 77% 29.38 in 10.0 mi NW 20.7 mph 25.3 mph N/A Rain Light Rain
4:58 PM 57.2 °F 50.0 °F 77% 29.37 in 10.0 mi NW 21.9 mph 27.6 mph 0.05 in Rain Light Rain
5:07 PM 57.2 °F 50.0 °F 77% 29.39 in 10.0 mi NW 21.9 mph 27.6 mph N/A   Overcast
5:39 PM 57.2 °F 48.2 °F 72% 29.39 in 10.0 mi NW 20.7 mph 29.9 mph N/A   Light Drizzle
5:58 PM 56.1 °F 48.7 °F 76% 29.39 in 10.0 mi NW 23.0 mph 31.1 mph 0.00 in Rain Light Rain
6:09 PM 57.2 °F 48.2 °F 72% 29.41 in 10.0 mi NW 25.3 mph 35.7 mph N/A   Overcast
6:58 PM 56.7 °F 46.4 °F 69% 29.41 in 10.0 mi NW 21.9 mph 33.4 mph 0.00 in   Overcast
7:58 PM 55.9 °F 44.4 °F 65% 29.43 in 10.0 mi NW 25.3 mph 38.0 mph N/A   Overcast
8:58 PM 55.2 °F 43.9 °F 66% 29.45 in 10.0 mi NW 23.0 mph 31.1 mph N/A   Overcast
9:58 PM 54.5 °F 43.3 °F 66% 29.47 in 10.0 mi NW 26.5 mph 42.6 mph N/A   Overcast
10:58 PM 53.8 °F 41.7 °F 64% 29.48 in 10.0 mi WNW 28.8 mph 38.0 mph 0.01 in   Overcast
11:58 PM 53.6 °F 41.9 °F 65% 29.48 in 10.0 mi WNW 28.8 mph 35.7 mph N/A   Overcast